{"data":{"norad_id":65066,"intl_designator":"2025-165L","name":"STARLINK-34739","alt_names":[],"object_type":"PAYLOAD","status":"ACTIVE","operator":null,"country":"US","launch_date":"2025-07-31","launch_site_code":"AFWTR","launch_vehicle":null,"mission":null,"orbit_class":"UNKNOWN","rcs_meters":null,"size_class":null,"mass_kg":null,"dimensions":null,"purposes":["comms"],"wikipedia_slug":null,"has_3d_model":false,"image_url":null,"decayed_at":null,"tle_current":{"epoch":"2026-09-20T22:00:03.000096Z","epoch_age_seconds":84271,"freshness":"FRESH","line1":"1 65066U 25165L   26263.91670139 -.00032770  00000+0 -10186-2 0  9995","line2":"2 65066  97.2855 335.0287 0001763  96.7125 209.0471 15.33399349  5643","mean_motion":15.33399349,"eccentricity":0.0001763,"inclination_deg":97.2855,"raan_deg":335.0287,"arg_perigee_deg":96.7125,"mean_anomaly_deg":209.0471,"bstar":-0.0010186,"rev_number":564,"period_min":93.909000348741,"perigee_km":464.47243834429,"apogee_km":466.88556786698,"semimajor_km":6843.8160031056,"source":"CELESTRAK","updated_at":"2026-09-21T09:00:35.499909Z"}}}